This demonstration page uses our WeatherBlox Daily Observations layout. Learn more.

Left ArrowRight Arrow

Hourly Observations for May 24, 2020

Temp ( °F °C ) Dew Point ( °F °C ) Humidity (%) Winds ( mph kmh ) Pressure ( in mb ) Visibility ( mi km ) Precip ( " mm )
12:51 am 00:51 Clear 74 23.3 22 -5.6 14 14 WNW 12 19 29.69 1006 10 16.0934 0 0
1:51 am 01:51 Clear 71 21.7 23 -5 16 16 WNW 9 15 29.7 1006 10 16.0934 0 0
2:51 am 02:51 Clear 69 20.6 23 -5 17 17 NNW 10 17 29.7 1006 10 16.0934 0 0
3:51 am 03:51 Clear 69 20.6 22 -5.6 17 17 NNW 10 17 29.71 1006 10 16.0934 0 0
4:51 am 04:51 Clear 67 19.4 22 -5.6 18 18 NNW 7 11 29.72 1007 10 16.0934 0 0
5:51 am 05:51 Sunny 66 18.9 23 -5 19 19 N 7 11 29.74 1007 10 16.0934 0 0
6:51 am 06:51 Sunny 69 20.6 24 -4.4 18 18 SSW 5 7 29.76 1008 10 16.0934 0 0
7:51 am 07:51 Sunny 73 22.8 26 -3.3 17 17 WSW 6 9 29.77 1008 10 16.0934 0 0
8:51 am 08:51 Sunny 77 25 24 -4.4 14 14 SSW 3 6 29.76 1008 10 16.0934 0 0
9:51 am 09:51 Sunny 80 26.7 26 -3.3 14 14 NW 7 11 29.75 1007 10 16.0934 0 0
10:51 am 10:51 Sunny 82 27.8 26 -3.3 13 13 VRB 3 6 29.74 1007 10 16.0934 0 0
11:51 am 11:51 Sunny 82 27.8 26 -3.3 13 13 VRB 5 7 29.72 1007 10 16.0934 0 0
12:51 pm 12:51 Sunny 88 31.1 26 -3.3 10 10 NW 13 20 29.69 1006 10 16.0934 0 0
1:51 pm 13:51 Sunny 89 31.7 27 -2.8 11 11 NW 18 30 29.68 1005 10 16.0934 0 0
2:51 pm 14:51 Sunny 89 31.7 26 -3.3 10 10 WNW 22 35 29.65 1004 10 16.0934 0 0
3:51 pm 15:51 Sunny 89 31.7 26 -3.3 10 10 NW 17 28 29.63 1004 10 16.0934 0 0
4:51 pm 16:51 Sunny 87 30.6 23 -5 9 9 W 24 39 29.63 1004 10 16.0934 0 0
5:51 pm 17:51 Sunny 85 29.4 21 -6.1 9 9 W 17 28 29.64 1004 10 16.0934 0 0
6:51 pm 18:51 Sunny 82 27.8 23 -5 11 11 WNW 15 24 29.66 1004 10 16.0934 0 0
7:51 pm 19:51 Clear 79 26.1 23 -5 12 12 WNW 14 22 29.67 1005 10 16.0934 0 0
8:51 pm 20:51 Clear 75 23.9 24 -4.4 15 15 NW 12 19 29.69 1005 10 16.0934 0 0
9:51 pm 21:51 Clear 71 21.7 23 -5 16 16 NW 9 15 29.7 1006 10 16.0934 0 0
10:51 pm 22:51 Clear 72 22.2 23 -5 16 16 NW 14 22 29.69 1005 10 16.0934 0 0
11:51 pm 23:51 Clear 71 21.7 21 -6.1 15 15 NW 12 19 29.69 1005 10 16.0934 0 0

Powered by AerisWeather